SKYSAT-C10 (42988 NORAD) Tracking and Keplerian Element Data

This shows tracking and keplerian element data for the satellite.

Feedback or suggestion? Click here.




ElementValue
Catalog42988
NameSKYSAT-C10
Epoch Orbit36912
Epoch Day159.60044733
Epoch Year2024
RAAN285.6391
Inclination97.3664
Eccentricity0.000287
Argument of Perigee269.0018
Mean Anonmoly91.0894
Mean Motion15.31387046
Decay Rate0.00017221
L11 42988U 17068B 24159.60044733 .00017221 00000+0 56993-3 0 9998
L22 42988 97.3664 285.6391 0002870 269.0018 91.0894 15.31387046369125



Live tracking and technical data element details for SKYSAT-C10 (NORAD 42988). SKYSAT-C10 can be tracked NOW for your location showing map with azimuth and elevation plus other details from your city location.







IsCatalogInMostPopularTable: catalog: 42988, numindb: 696
Update: records affected: 1



GetName: 42988 SKYSAT-C10

Hit Count: updated at: Mon, 17 Jun 2024 22:30:32 GMT